DW3901 Weather Reports


Display with metric or nautical units.
time (UTC)temp
F
wind
direction
speed
MPH
gust
MPH
rain 1hr
in
rain 24hr
in
rain mn
in
humidity
%
barometer
mb
20260510080029 68 215 9.0 20.0 0.00 0.00 0.00 83 1008.8
20260510074527 69 26 14.0 19.0 0.00 0.00 0.00 85 1008.9
20260510073034 72 52 8.0 13.0 0.00 0.00 0.00 91 1007.9
20260510071523 72 78 7.0 12.0 0.00 0.00 0.00 90 1006.9
20260510070022 73 71 10.0 16.0 0.00 0.00 0.00 89 1007.4
20260510064517 73 79 6.0 12.0 0.00 0.00 0.00 87 1008.0
20260510063017 74 15 5.0 9.0 0.00 0.00 0.00 87 1009.3
20260510061516 74 9 8.0 11.0 0.00 0.00 0.00 87 1009.5
20260510060030 74 355 8.0 12.0 0.00 0.00 0.00 87 1009.4
20260510054514 74 9 6.0 10.0 0.00 0.00 0.00 87 1008.7
20260510053007 74 86 8.0 14.0 0.00 0.00 0.00 86 1007.1
20260510051504 74 116 10.0 14.0 0.00 0.00 0.00 85 1006.6
20260510050105 74 103 9.0 13.0 0.00 0.00 0.00 85 1006.5
20260510044600 73 102 8.0 13.0 0.00 0.00 0.00 84 1006.3
20260510043112 73 122 8.0 13.0 0.00 0.00 0.00 81 1005.9
20260510041604 73 103 9.0 14.0 0.00 0.00 0.00 79 1005.9
20260510040107 74 119 8.0 10.0 0.00 0.00 0.00 76 1005.8
20260510034601 74 107 7.0 10.0 0.00 0.00 0.00 75 1006.1
20260510033057 75 111 8.0 11.0 0.00 0.00 0.00 74 1006.2
20260510031604 75 109 7.0 11.0 0.00 0.00 0.00 73 1006.1
20260510030058 75 92 7.0 11.0 0.00 0.00 0.00 71 1006.0
20260510024556 75 96 4.0 8.0 0.00 0.00 0.00 72 1006.0
20260510023054 76 80 4.0 6.0 0.00 0.00 0.00 71 1006.3
20260510021555 76 92 4.0 8.0 0.00 0.00 0.00 70 1006.1
20260510020054 77 76 5.0 7.0 0.00 0.00 0.00 69 1005.9
20260510014557 77 79 4.0 7.0 0.00 0.00 0.00 68 1005.8
20260510013109 78 85 2.0 4.0 0.00 0.00 0.00 67 1005.7
20260510011553 79 77 2.0 5.0 0.00 0.00 0.00 65 1005.5
20260510010051 80 73 3.0 7.0 0.00 0.00 0.00 63 1005.3
20260510004551 81 61 4.0 8.0 0.00 0.00 0.00 62 1005.1
20260510003051 81 94 6.0 9.0 0.00 0.00 0.00 62 1005.0
20260510001554 82 98 7.0 10.0 0.00 0.00 0.00 59 1005.1
20260510000048 82 86 6.0 10.0 0.00 0.00 0.00 58 1005.1
20260509234548 83 97 5.0 10.0 0.00 0.00 0.00 59 1005.4
20260509233048 82 85 4.0 10.0 0.00 0.00 0.00 59 1005.3
20260509231555 83 61 6.0 11.0 0.00 0.00 0.00 58 1005.3
20260509230047 83 33 6.0 10.0 0.00 0.00 0.00 60 1005.3
20260509224547 83 98 3.0 9.0 0.00 0.00 0.00 60 1005.4
20260509223046 83 59 6.0 11.0 0.00 0.00 0.00 59 1005.2
20260509221545 83 94 8.0 13.0 0.00 0.00 0.00 59 1005.2
20260509220046 83 53 7.0 12.0 0.00 0.00 0.00 61 1005.1
20260509214544 83 109 7.0 12.0 0.00 0.00 0.00 62 1005.2
20260509213042 83 30 6.0 13.0 0.00 0.00 0.00 63 1005.3
20260509211547 83 70 6.0 12.0 0.00 0.00 0.00 62 1005.6
20260509210042 82 68 9.0 13.0 0.00 0.00 0.00 65 1005.8
20260509204540 82 76 7.0 14.0 0.00 0.00 0.00 66 1006.0
20260509203039 82 91 7.0 13.0 0.00 0.00 0.00 65 1006.0
20260509201537 82 59 6.0 14.0 0.00 0.00 0.00 68 1006.1
20260509200043 82 101 7.0 13.0 0.00 0.00 0.00 68 1006.2
20260509194537 82 86 8.0 16.0 0.00 0.00 0.00 69 1006.4
20260509193036 82 92 6.0 12.0 0.00 0.00 0.00 68 1006.6
20260509191534 82 44 5.0 14.0 0.00 0.00 0.00 67 1006.6
20260509190033 82 38 5.0 13.0 0.00 0.00 0.00 70 1006.7
20260509184707 81 78 5.0 12.0 0.00 0.00 0.00 69 1006.7
20260509183030 81 360 5.0 11.0 0.00 0.00 0.00 72 1007.0
20260509181529 81 62 5.0 11.0 0.00 0.00 0.00 70 1007.0
20260509180028 81 35 3.0 9.0 0.00 0.00 0.00 71 1007.2
20260509174533 80 37 6.0 10.0 0.00 0.00 0.00 72 1007.3
20260509173025 80 20 5.0 9.0 0.00 0.00 0.00 73 1007.6
20260509171525 79 355 4.0 8.0 0.00 0.00 0.00 72 1007.5
20260509170023 80 346 5.0 11.0 0.00 0.00 0.00 72 1007.6
20260509164521 79 61 4.0 9.0 0.00 0.00 0.00 73 1007.7
20260509163027 79 355 5.0 10.0 0.00 0.00 0.00 74 1007.7
20260509161515 77 26 4.0 9.0 0.00 0.00 0.00 78 1007.6
20260509160013 76 291 2.0 7.0 0.00 0.00 0.00 79 1007.6
20260509154510 76 9 3.0 8.0 0.00 0.00 0.00 77 1007.5
20260509153103 75 9 4.0 10.0 0.00 0.00 0.00 80 1007.5
20260509151558 74 56 4.0 6.0 0.00 0.00 0.00 83 1007.7
20260509150056 73 39 3.0 6.0 0.00 0.00 0.00 84 1007.7
20260509144555 74 331 2.0 10.0 0.00 0.00 0.00 86 1007.7
20260509143054 73 308 2.0 6.0 0.00 0.00 0.00 86 1007.5
20260509141559 72 310 4.0 7.0 0.00 0.00 0.00 87 1007.4
20260509140058 72 340 2.0 5.0 0.00 0.00 0.00 88 1007.4
20260509134543 72 344 0.0 3.0 0.00 0.00 0.00 89 1007.3
20260509133041 72 336 0.0 0.0 0.00 0.00 0.00 92 1007.2
20260509131539 70 52 0.0 0.0 0.00 0.00 0.00 93 1007.3
20260509130039 69 52 1.0 3.0 0.00 0.00 0.00 94 1007.2
20260509124536 69 46 0.0 0.0 0.00 0.00 0.00 95 1007.2
20260509123044 68 46 1.0 4.0 0.00 0.00 0.00 94 1007.1
20260509121531 68 43 2.0 4.0 0.00 0.00 0.00 94 1007.3
20260509120030 67 61 2.0 4.0 0.00 0.00 0.00 94 1007.0
20260509114530 67 37 2.0 4.0 0.00 0.00 0.00 94 1006.9
20260509113036 67 51 2.0 4.0 0.00 0.00 0.00 93 1006.7
20260509111541 67 40 2.0 3.0 0.00 0.00 0.00 93 1006.4
20260509110027 68 40 1.0 2.0 0.00 0.00 0.00 93 1006.3
20260509104529 68 40 2.0 3.0 0.00 0.00 0.00 93 1006.2
20260509103027 68 76 1.0 4.0 0.00 0.00 0.00 93 1006.0
20260509101531 68 140 1.0 4.0 0.00 0.00 0.00 92 1005.7
20260509100031 68 92 1.0 4.0 0.00 0.00 0.00 92 1005.4
20260509094529 68 142 6.0 10.0 0.00 0.00 0.00 92 1005.0
20260509093024 68 97 4.0 9.0 0.00 0.00 0.00 92 1005.5
20260509091523 68 43 4.0 9.0 0.00 0.00 0.00 91 1005.8
20260509090023 68 22 3.0 9.0 0.00 0.00 0.00 91 1005.9
20260509084522 68 56 7.0 13.0 0.00 0.00 0.00 91 1005.6
20260509083033 68 83 10.0 13.0 0.00 0.00 0.00 91 1005.3
20260509081517 68 82 7.0 10.0 0.00 0.00 0.00 91 1005.8